TimeMST,TemperatureF,Dew PointF,Humidity,Sea Level PressureIn,VisibilityMPH,Wind Direction,Wind SpeedMPH,Gust SpeedMPH,PrecipitationIn,Events,Conditions,WindDirDegrees,DateUTC
12:09 AM,29.5,26.6,89,30.28,10.0,Calm,Calm,-,N/A,,Clear,0,2013-03-02 07:09:00
12:30 AM,28.8,25.7,88,30.28,10.0,Calm,Calm,-,N/A,,Clear,0,2013-03-02 07:30:00
12:48 AM,28.2,25.0,88,30.28,10.0,Calm,Calm,-,N/A,,Clear,0,2013-03-02 07:48:00
1:09 AM,28.0,26.2,93,30.28,10.0,Calm,Calm,-,N/A,,Clear,0,2013-03-02 08:09:00
1:28 AM,27.9,25.7,92,30.28,10.0,Calm,Calm,-,N/A,,Clear,0,2013-03-02 08:28:00
1:49 AM,27.3,25.3,92,30.28,10.0,Calm,Calm,-,N/A,,Clear,0,2013-03-02 08:49:00
2:08 AM,26.8,24.3,90,30.27,10.0,Calm,Calm,-,N/A,,Clear,0,2013-03-02 09:08:00
2:29 AM,26.4,24.4,92,30.27,10.0,Calm,Calm,-,N/A,,Clear,0,2013-03-02 09:29:00
2:49 AM,25.0,23.4,94,30.26,10.0,Calm,Calm,-,N/A,,Clear,0,2013-03-02 09:49:00
3:08 AM,25.2,23.5,94,30.26,10.0,Calm,Calm,-,N/A,,Clear,0,2013-03-02 10:08:00
3:28 AM,25.5,23.4,92,30.26,10.0,Calm,Calm,-,N/A,,Clear,0,2013-03-02 10:28:00
3:48 AM,24.8,23.0,93,30.26,10.0,Calm,Calm,-,N/A,,Clear,0,2013-03-02 10:48:00
4:10 AM,24.1,22.3,93,30.26,10.0,Calm,Calm,-,N/A,,Clear,0,2013-03-02 11:10:00
4:30 AM,23.7,22.3,94,30.26,10.0,Calm,Calm,-,N/A,,Clear,0,2013-03-02 11:30:00
4:49 AM,24.3,22.8,94,30.27,10.0,Calm,Calm,-,N/A,,Clear,0,2013-03-02 11:49:00
5:09 AM,23.7,22.1,94,30.27,10.0,Calm,Calm,-,N/A,,Clear,0,2013-03-02 12:09:00
5:30 AM,24.3,22.3,92,30.26,10.0,Calm,Calm,-,N/A,,Clear,0,2013-03-02 12:30:00
5:48 AM,24.3,22.5,93,30.26,10.0,Calm,Calm,-,N/A,,Clear,0,2013-03-02 12:48:00
6:09 AM,25.7,22.8,89,30.27,10.0,Calm,Calm,-,N/A,,Clear,0,2013-03-02 13:09:00
6:29 AM,24.6,21.7,89,30.27,10.0,Calm,Calm,-,N/A,,Clear,0,2013-03-02 13:29:00
6:48 AM,25.3,22.1,87,30.27,10.0,Calm,Calm,-,N/A,,Clear,0,2013-03-02 13:48:00
7:08 AM,24.4,21.7,89,30.27,10.0,Calm,Calm,-,N/A,,Clear,0,2013-03-02 14:08:00
7:28 AM,26.2,24.4,93,30.27,10.0,Calm,Calm,-,N/A,,Clear,0,2013-03-02 14:28:00
7:47 AM,28.2,25.5,90,30.27,10.0,Calm,Calm,-,N/A,,Clear,0,2013-03-02 14:47:00
8:07 AM,30.7,26.8,85,30.27,10.0,Calm,Calm,-,N/A,,Clear,0,2013-03-02 15:07:00
8:27 AM,33.6,28.6,82,30.27,10.0,Calm,Calm,-,N/A,,Clear,0,2013-03-02 15:27:00
8:48 AM,38.3,30.4,73,30.27,10.0,Calm,Calm,-,N/A,,Clear,0,2013-03-02 15:48:00
9:08 AM,44.1,31.8,62,30.26,10.0,Calm,Calm,-,N/A,,Clear,0,2013-03-02 16:08:00
9:27 AM,50.0,27.0,41,30.26,10.0,Calm,Calm,-,N/A,,Clear,0,2013-03-02 16:27:00
9:47 AM,52.5,23.9,33,30.26,10.0,Calm,Calm,-,N/A,,Clear,0,2013-03-02 16:47:00
10:07 AM,54.7,23.5,30,30.25,10.0,Calm,Calm,-,N/A,,Clear,0,2013-03-02 17:07:00
10:27 AM,52.3,31.3,45,30.25,10.0,NNW,4.6,-,N/A,,Clear,330,2013-03-02 17:27:00
10:47 AM,55.2,23.9,30,30.25,10.0,SSE,4.6,-,N/A,,Clear,150,2013-03-02 17:47:00
11:06 AM,55.2,24.4,30,30.25,10.0,WNW,3.5,-,N/A,,Clear,300,2013-03-02 18:06:00
11:28 AM,55.2,27.3,34,30.24,10.0,West,3.5,-,N/A,,Clear,280,2013-03-02 18:28:00
11:47 AM,56.3,29.1,35,30.23,10.0,NNW,5.8,-,N/A,,Clear,330,2013-03-02 18:47:00
12:08 PM,56.3,28.8,35,30.22,10.0,Calm,Calm,-,N/A,,Clear,0,2013-03-02 19:08:00
12:27 PM,56.7,27.5,33,30.21,10.0,Calm,Calm,-,N/A,,Clear,0,2013-03-02 19:27:00
12:48 PM,55.4,25.5,32,30.20,10.0,Calm,Calm,-,N/A,,Clear,0,2013-03-02 19:48:00
1:06 PM,57.4,26.6,31,30.19,10.0,Calm,Calm,-,N/A,,Clear,0,2013-03-02 20:06:00
1:29 PM,58.5,25.0,28,30.17,10.0,Calm,Calm,-,N/A,,Clear,0,2013-03-02 20:29:00
1:46 PM,58.8,22.6,25,30.17,10.0,Calm,Calm,-,N/A,,Clear,0,2013-03-02 20:46:00
2:06 PM,59.9,23.4,25,30.15,10.0,NW,3.5,-,N/A,,Clear,320,2013-03-02 21:06:00
2:27 PM,60.1,19.6,21,30.15,10.0,Calm,Calm,-,N/A,,Clear,0,2013-03-02 21:27:00
2:46 PM,60.3,19.4,21,30.15,10.0,Calm,Calm,-,N/A,,Clear,0,2013-03-02 21:46:00
3:06 PM,60.4,18.1,19,30.15,10.0,Calm,Calm,-,N/A,,Clear,0,2013-03-02 22:06:00
3:27 PM,60.8,19.0,20,30.15,10.0,Calm,Calm,-,N/A,,Clear,0,2013-03-02 22:27:00
3:48 PM,60.8,21.9,22,30.14,10.0,NW,3.5,-,N/A,,Clear,310,2013-03-02 22:48:00
4:06 PM,58.8,25.7,28,30.14,10.0,WNW,6.9,-,N/A,,Clear,300,2013-03-02 23:06:00
4:27 PM,56.5,26.6,32,30.13,10.0,NNW,5.8,-,N/A,,Clear,330,2013-03-02 23:27:00
4:48 PM,53.1,26.4,36,30.13,10.0,North,4.6,-,N/A,,Clear,350,2013-03-02 23:48:00
5:07 PM,52.7,28.2,39,30.14,10.0,Calm,Calm,-,N/A,,Clear,0,2013-03-03 00:07:00
5:27 PM,54.3,27.3,35,30.14,10.0,Calm,Calm,-,N/A,,Clear,0,2013-03-03 00:27:00
5:49 PM,48.9,29.8,48,30.14,10.0,West,5.8,-,N/A,,Clear,270,2013-03-03 00:49:00
6:06 PM,46.9,32.7,58,30.14,10.0,Calm,Calm,-,N/A,,Clear,0,2013-03-03 01:06:00
6:26 PM,45.5,33.3,62,30.14,10.0,SSW,3.5,-,N/A,,Clear,200,2013-03-03 01:26:00
6:46 PM,43.3,33.1,67,30.14,10.0,Calm,Calm,-,N/A,,Clear,0,2013-03-03 01:46:00
7:07 PM,42.3,33.3,70,30.14,10.0,Calm,Calm,-,N/A,,Clear,0,2013-03-03 02:07:00
7:29 PM,41.4,33.1,72,30.13,10.0,Calm,Calm,-,N/A,,Clear,0,2013-03-03 02:29:00
7:47 PM,38.8,33.1,80,30.12,10.0,SW,3.5,-,N/A,,Clear,220,2013-03-03 02:47:00
8:07 PM,37.8,33.3,84,30.12,10.0,Calm,Calm,-,N/A,,Clear,0,2013-03-03 03:07:00
8:28 PM,37.6,32.7,83,30.12,10.0,SW,3.5,-,N/A,,Clear,220,2013-03-03 03:28:00
8:48 PM,37.8,32.2,80,30.11,10.0,Calm,Calm,-,N/A,,Clear,0,2013-03-03 03:48:00
9:08 PM,38.5,32.4,79,30.11,10.0,Calm,Calm,-,N/A,,Clear,0,2013-03-03 04:08:00
9:28 PM,36.9,32.0,83,30.09,10.0,SSW,4.6,-,N/A,,Clear,200,2013-03-03 04:28:00
9:48 PM,37.8,31.5,78,30.09,10.0,SSW,5.8,-,N/A,,Clear,200,2013-03-03 04:48:00
10:06 PM,41.0,29.8,64,30.09,10.0,South,3.5,-,N/A,,Clear,190,2013-03-03 05:06:00
10:28 PM,40.6,29.8,65,30.08,10.0,Calm,Calm,-,N/A,,Clear,0,2013-03-03 05:28:00
10:49 PM,41.0,28.9,62,30.07,10.0,Calm,Calm,-,N/A,,Clear,0,2013-03-03 05:49:00
11:07 PM,42.1,27.9,57,30.05,10.0,Calm,Calm,-,N/A,,Clear,0,2013-03-03 06:07:00
11:27 PM,42.4,27.5,56,30.04,10.0,South,3.5,-,N/A,,Clear,190,2013-03-03 06:27:00
11:47 PM,42.8,26.4,52,30.02,10.0,SSW,3.5,-,N/A,,Clear,200,2013-03-03 06:47:00